Hourly Data Report for September 09, 2017

All times are specified in Local Standard Time (LST). Add 1 hour to adjust for Daylight Saving Time where and when it is observed.

KUGAARUK CLIMATE
NUNAVUT

68°32'15.060" N
89°47'47.020" W
15.80 m
2303094
71407
NBB

Download Data

Hourly Data (September 2017)
Hourly Data Report for September 9, 2017
Temp Definition
°C
Dew Point Temp Definition
°C
Rel Hum Definition
%
Wind Dir Definition
10's deg

Wind Spd Definition
km/h
Visibility Definition
km
Stn Press Definition
kPa
Hmdx Definition


Wind Chill Definition


Weather Definition


TIME
00:00 -0.8 -3.2 84 3 28   98.85   -7 LegendNANA
01:00 -0.9 -3.1 85 1 28   98.97   -7 LegendNANA
02:00 -0.7 -3.3 83 35 13   99.15   -5 LegendNANA
03:00 -0.3 -3.5 79 34 14   99.23   -5 LegendNANA
04:00 0.1 -3.7 76 34 27   99.32     LegendNANA
05:00 0.3 -3.7 74 31 28   99.46     LegendNANA
06:00 0.5 -4.2 70 30 20   99.57     LegendNANA
07:00 0.7 -4.3 69 30 22   99.63     LegendNANA
08:00 1.0 -4.1 69 30 22   99.73     LegendNANA
09:00 1.5 -4.6 64 30 23   99.81     LegendNANA
10:00 1.8 -3.9 66 32 21   99.95     LegendNANA
11:00 1.6 -3.3 70 33 27   100.06     LegendNANA
12:00 1.7 -3.3 69 33 28   100.20     LegendNANA
13:00 2.1 -3.6 66 32 27   100.34     LegendNANA
14:00 2.5 -3.8 63 32 19   100.45     LegendNANA
15:00 3.0 -4.7 57 30 18   100.54     LegendNANA
16:00 3.4 -4.6 56 31 14   100.64     LegendNANA
17:00 3.0 -1.5 72 29 14   100.74     LegendNANA
18:00 1.7 -3.1 71 32 14   100.89     LegendNANA
19:00 1.0 -3.3 73 31 13   100.99     LegendNANA
20:00 1.4 -2.8 74 29 19   101.08     LegendNANA
21:00 1.0 -2.3 79 27 21   101.15     LegendNANA
22:00 -0.1 -3.3 79 27 25   101.23   -6 LegendNANA
23:00 -0.4 -3.5 80 28 27   101.28   -7 LegendNANA

Notes on Data Quality.

Legend

  • E = Estimated
  • M = Missing
  • NA = Not Available
  • ‡ = Partner data that is not subject to review by the National Climate Archives
Date modified: